This is the latest recevied weather packets stored in our database for station/object IZ5MMH-1. If no packets are shown the sender has not sent any weather packets the latest 10 day(s).
| Time | Temp. | Humidity | Pressure | Rain* | Wind** | Luminosity | Snow |
|---|---|---|---|---|---|---|---|
| 1787549300 | 21.11° C | 57% | 1016.6 hPa | - | - | - | - |
| 1787548700 | 18.33° C | 58% | 1016.6 hPa | - | - | - | - |
| 1787548100 | 17.22° C | 61% | 1016.6 hPa | - | - | - | - |
| 1787547501 | 16.67° C | 61% | 1016.5 hPa | - | - | - | - |
| 1787546902 | 16.67° C | 62% | 1016.5 hPa | - | - | - | - |
| 1787546299 | 16.11° C | 63% | 1016.5 hPa | - | - | - | - |
| 1787545700 | 16.11° C | 61% | 1016.6 hPa | - | - | - | - |
| 1787545101 | 16.67° C | 57% | 1016.5 hPa | - | - | - | - |
| 1787544500 | 16.67° C | 57% | 1016.4 hPa | - | - | - | - |
| 1787543901 | 16.67° C | 57% | 1016.5 hPa | - | - | - | - |
| 1787543299 | 16.67° C | 57% | 1016.4 hPa | - | - | - | - |
| 1787542701 | 16.67° C | 59% | 1016.5 hPa | - | - | - | - |
| 1787542099 | 16.67° C | 58% | 1016.5 hPa | - | - | - | - |
| 1787541502 | 16.67° C | 58% | 1016.4 hPa | - | - | - | - |
| 1787540899 | 16.67° C | 59% | 1016.5 hPa | - | - | - | - |
| 1787540301 | 16.67° C | 59% | 1016.4 hPa | - | - | - | - |
| 1787539700 | 17.22° C | 56% | 1016.5 hPa | - | - | - | - |
| 1787539101 | 17.22° C | 57% | 1016.5 hPa | - | - | - | - |
| 1787538500 | 17.22° C | 56% | 1016.5 hPa | - | - | - | - |
| 1787537900 | 17.22° C | 56% | 1016.4 hPa | - | - | - | - |
| 1787537301 | 17.22° C | 58% | 1016.6 hPa | - | - | - | - |
| 1787536730 | 17.22° C | 57% | 1016.6 hPa | - | - | - | - |
| 1787536100 | 17.22° C | 57% | 1016.6 hPa | - | - | - | - |
| 1787535500 | 17.22° C | 56% | 1016.5 hPa | - | - | - | - |
| 1787534900 | 17.78° C | 55% | 1016.4 hPa | - | - | - | - |
* Rain since midnight (hover to see other rain measurements)
** Current wind speed in m/s (hover to see current wind gust speed)